Torna al catalogo

STARLINK-31473

AttivoComunicazioniVLEO
NORAD 59339·PAYLOAD·🇺🇸 United States

Lanciato Mar 25, 2024 da Cape Canaveral Space Force Station

Loading…

Prossimi Passaggi (prossime 24 ore)

TLE

AggiornatoSource: CelesTrak SupGP

Epoca: Sep 15, 2026, 02:47 UTC

1 59339C 24057V   26258.11645833 -.00036309  00000+0 -13152-2 0  2585
2 59339  43.0002 197.1564 0000979 275.7440 348.5669 15.27594193    15

Traccia STARLINK-31473 in tempo reale con AllMySat

Download on the App Store